User: anonymous   Login
Location: Unspecified
(0.0000°N, 0.0000°E)
Time: 16:32:15
(UTC+02:00)
Language:

Cosmos 1300 - Orbit

View from above orbital plane
View from above orbital plane
View from above satellite
View from above satellite

Ground track
Ground track

The orbit data is extracted from the following two-line orbital elements,

1 12785U 81082A   16150.89250032  .00000794  00000-0  39681-4 0  9995
2 12785  82.5050  91.9980 0002713 105.7364 311.8731 15.16062106893765
Epoch (UTC): 29 May 2016 21:25:12
Eccentricity: 0.0002713
inclination: 82.5050°
perigee height: 516 km
apogee height: 519 km
right ascension of ascending node: 91.9980°
argument of perigee: 105.7364°
revolutions per day: 15.16062106
mean anomaly at epoch: 311.8731°
orbit number at epoch: 89376

The dashed part of the orbit path shows where the satellite is in the earth's shadow,  

DLR